STARLINK-2354 (47894 NORAD) Tracking and Keplerian Element Data

This shows tracking and keplerian element data for the satellite.

Feedback or suggestion? Click here.




ElementValue
Catalog47894
NameSTARLINK-2354
Epoch Orbit197
Epoch Day173.91668981
Epoch Year2021
RAAN79.4067
Inclination53.0485
Eccentricity0.0001313
Argument of Perigee72.1334
Mean Anonmoly133.9848
Mean Motion15.50935411
Decay Rate-0.0108311
L11 47894U 21021AL 21173.91668981 -.01083110 00000-0 -20285-1 0 9994
L22 47894 53.0485 79.4067 0001313 72.1334 133.9848 15.50935411 1977

Live tracking and technical data element details for STARLINK-2354 (NORAD 47894). STARLINK-2354 can be tracked NOW for your location showing map with azimuth and elevation plus other details from your city location.

Track the satellite on the map from your city or location and see movement details for azimuth, elevation, latitude, longitude, range, height, and movement on the map or in text.







IsCatalogInMostPopularTable: catalog: 47894, numindb: 45
Update: records affected: 1



GetName: 47894 STARLINK-2354

Hit Count: updated at: Thu, 24 Jun 2021 03:16:46 GMT